Cozumel, Mexico

4:58 PM EST on June 27, 2017 (GMT -0500)
Cozumel

Weather History for MMCZ - October, 2010

Change the Weather History Date:

Monday, October 18, 2010

  Actual Average Record
Temperature  
Mean Temperature 74 °F -  
Max Temperature 80 °F 84 °F 91 °F (2006)
Min Temperature 68 °F 74 °F 64 °F (2013)
Cooling Degree Days 9    
Growing Degree Days 24 (Base 50)    
Moisture  
Dew Point 70 °F    
Average Humidity 88    
Maximum Humidity 100    
Minimum Humidity 69    
Precipitation  
Precipitation 0.00 in - - ()
Sea Level Pressure  
Sea Level Pressure 29.95 in    
Wind  
Wind Speed 1 mph ()    
Max Wind Speed 8 mph    
Max Gust Speed -    
Visibility 7.0 miles    
Events      
Averages and records for this station are not official NWS values.
T = Trace of Precipitation, MM = Missing Value Source: Averaged Metar Reports

Daily Weather History Graph

Daily Weather History Graph

Search for Another Location

Airport or City:

Trip Planner

Search our weather history database for the weather conditions in past years. The results will help you decide how hot, cold, wet, or windy it might be!

Date:

Astronomy

Oct. 18, 2010 Rise Set
Actual Time 6:43 AM CDT 6:21 PM CDT
Civil Twilight 6:21 AM CDT 6:43 PM CDT
Nautical Twilight 5:55 AM CDT 7:09 PM CDT
Astronomical Twilight 5:29 AM CDT 7:35 PM CDT
Moon 3:40 PM CDT (10/18) 3:02 AM CDT (10/18)
Length of Visible Light 12h 22m
Length of Day
11h 37m
Waxing Gibbous, 83% of the Moon is Illuminated
Oct 18
Waxing Gibbous
Oct 22
Full
Oct 30
Last Quarter
Nov 5
New
Nov 13
First Quarter

Hourly Weather History & Observations

Time (CDT) Temp. Heat Index Dew Point Humidity Pressure Visibility Wind Dir Wind Speed Gust Speed Precip Events Conditions
12:42 AM 69.8 °F - 68.0 °F 94% 29.98 in 7.0 mi Calm Calm - N/A   Scattered Clouds
1:40 AM 69.8 °F - 68.0 °F 94% 29.99 in 7.0 mi Calm Calm - N/A   Scattered Clouds
2:40 AM 68.0 °F - 68.0 °F 100% 29.89 in 7.0 mi Calm Calm - N/A   Scattered Clouds
3:42 AM 68.0 °F - 68.0 °F 100% 29.97 in 7.0 mi Calm Calm - N/A   Scattered Clouds
4:41 AM 68.0 °F - 68.0 °F 100% 29.95 in 7.0 mi Calm Calm - N/A   Scattered Clouds
5:45 AM 68.0 °F - 68.0 °F 100% 29.95 in 7.0 mi Calm Calm - N/A   Clear
6:45 AM 71.6 °F - 71.6 °F 100% 29.94 in 7.0 mi North 5.8 mph - N/A   Scattered Clouds
7:40 AM 69.8 °F - 69.8 °F 100% 29.98 in 7.0 mi Calm Calm - N/A   Partly Cloudy
8:42 AM 77.0 °F - 71.6 °F 83% 29.99 in 7.0 mi North 4.6 mph - N/A   Scattered Clouds
9:40 AM 77.0 °F - 71.6 °F 83% 30.03 in 7.0 mi North 8.1 mph - N/A   Scattered Clouds
10:40 AM 78.8 °F - 69.8 °F 74% 30.00 in 7.0 mi North 6.9 mph - N/A   Scattered Clouds
11:44 AM 80.6 °F 83.9 °F 69.8 °F 70% 29.99 in 7.0 mi NW 6.9 mph - N/A   Scattered Clouds
12:41 PM 80.6 °F 83.9 °F 69.8 °F 70% 29.93 in 7.0 mi Calm Calm - N/A   Scattered Clouds
1:42 PM 78.8 °F - 69.8 °F 74% 29.94 in 7.0 mi ESE 5.8 mph - N/A   Scattered Clouds
2:43 PM 78.8 °F - 68.0 °F 69% 29.92 in 7.0 mi SSE 3.5 mph - N/A   Mostly Cloudy
3:43 PM 78.8 °F - 71.6 °F 78% 29.93 in 7.0 mi Calm Calm - N/A   Mostly Cloudy
4:44 PM 77.0 °F - 71.6 °F 83% 29.90 in 7.0 mi Calm Calm - N/A   Mostly Cloudy
5:44 PM 77.0 °F - 71.6 °F 83% 29.89 in 7.0 mi SSE 3.5 mph - N/A   Mostly Cloudy
6:43 PM 75.2 °F - 69.8 °F 83% 29.86 in 7.0 mi Calm Calm - N/A   Mostly Cloudy
7:42 PM 71.6 °F - 69.8 °F 94% 29.90 in 7.0 mi Calm Calm - N/A   Mostly Cloudy
8:51 PM 71.6 °F - 69.8 °F 94% 29.92 in 7.0 mi Calm Calm - N/A   Scattered Clouds
9:48 PM 71.6 °F - 69.8 °F 94% 29.97 in 7.0 mi Calm Calm - N/A   Scattered Clouds
10:46 PM 71.6 °F - 69.8 °F 94% 29.93 in 7.0 mi Calm Calm - N/A   Scattered Clouds
11:47 PM 69.8 °F - 69.8 °F 100% 29.93 in 7.0 mi Calm Calm - N/A   Partly Cloudy